Location: NJAA Observatory
(40.6819°N, 74.8979°W)
Time: 17:33:52
(UTC-04:00)

S-56A Canister/Altair - Visible Passes

Search period start: 24 May 2016 00:00
Search period end: 03 June 2016 00:00
Orbit: 641 x 2494 km, 38.9° (Epoch: 17 May)

Date Brightness Start Highest point End Pass type
(mag) Time Alt. Az. Time Alt. Az. Time Alt. Az.
26 May 10.6 04:54:56 10° S 05:01:01 17° SE 05:05:58 10° ESE visible
27 May 10.7 04:22:33 10° S 04:28:28 16° SE 04:33:22 10° ESE visible
28 May 10.8 03:50:19 10° S 03:55:52 15° SE 04:00:36 10° ESE visible
29 May 10.9 03:18:17 10° SSE 03:23:14 13° SE 03:27:35 10° ESE visible
30 May 11.0 02:46:36 10° SSE 02:50:34 12° SE 02:54:10 10° ESE visible
30 May 9.9 04:45:02 10° SSW 04:55:14 35° SSE 05:02:29 10° E visible
31 May 11.1 02:15:48 10° SSE 02:17:52 11° SE 02:19:51 10° SE visible
31 May 10.1 04:12:44 11° SSW 04:22:35 33° SSE 04:30:11 10° E visible
01 Jun 10.2 03:41:48 16° SSW 03:49:52 31° SSE 03:57:49 10° E visible
02 Jun 10.3 03:10:47 20° S 03:17:06 29° SE 03:25:20 10° E visible
